[[{"header":{"parameterUnit":"m.s-1","parameterCategory":1,"la1":30.2991,"la2":30.254,"lo1":-89.0895,"lo2":-89.0444,"dy":0.0017,"dx":0.0017,"nx":28,"ny":28,"refTime":"2023-09-12T21:00:00:Z","depth":0,"parameterNumber":2,"parameterNumberName":"U-component_of_WINDS"},"data":[0,0,0,0,0,0,0,0,0,0,0,0,0,0,0,0,0,0,0,0,0,0,0,0,0,0,0,0,0,0,0,0,0,0,0,0,0,0,0,0,0,0,0,0,0,0,0,0,0,0,0,0,0,0,0,0,0,0,1.534,1.5341,0,1.5415,1.5416,1.5416,1.5417,1.5416,1.5416,1.5415,1.5494,1.5497,1.55,0,0,0,0,0,0,0,0,0,0,0,0,0,1.5201,1.5204,1.534,1.5341,1.5342,1.5415,1.5416,1.5417,1.5418,1.5416,1.5415,1.5414,1.5493,1.5497,1.55,0,0,0,0,0,0,0,0,0,0,0,0,0,1.5267,1.5204,1.534,1.5351,1.5353,1.5414,1.5416,1.5417,1.5418,1.5416,1.5415,1.5414,1.5492,1.5496,1.5501,1.5557,0,0,1.5515,1.5517,0,0,0,0,0,0,0,0,1.5263,1.5272,1.5348,1.535,1.5352,1.5405,1.5396,1.5464,1.5418,1.5393,1.5415,1.5413,1.5466,1.5472,1.549,1.5561,1.5564,1.5515,1.5518,1.552,1.5521,0,0,0,0,0,0,0,1.5259,1.5269,1.537,1.5349,1.5352,1.5353,1.5361,1.5409,1.5437,1.5395,1.5395,1.5404,1.5467,1.5485,1.5492,1.5566,1.5515,1.5519,1.5522,1.5523,1.5689,1.5691,0,0,0,0,0,0,1.5252,1.5265,1.5367,1.5372,1.5303,1.5357,1.5366,1.539,1.5436,1.5442,1.5405,1.5404,1.5478,1.5486,1.5494,1.5565,1.552,1.5524,1.5526,1.5687,1.569,1.5691,0,0,0,0,0,0,1.5249,1.5261,1.5364,1.5319,1.5332,1.5361,1.5388,1.5392,1.5411,1.5444,1.5449,1.5419,1.5478,1.5488,1.5542,1.5568,1.5526,1.553,1.5685,1.5688,1.569,1.5706,0,0,0,0,0,0,1.5245,1.526,1.5281,1.5319,1.5334,1.5409,1.5389,1.5394,1.5418,1.5417,1.5458,1.5464,1.5477,1.5535,1.5546,1.5573,1.5533,1.5683,1.5687,1.569,1.5704,1.5709,1.5714,0,0,0,0,0,1.524,1.5282,1.5282,1.5294,1.5361,1.5411,1.542,1.5434,1.542,1.5442,1.5464,1.5462,1.5563,1.5541,1.5553,1.5582,1.5682,1.5686,1.5689,1.5701,1.5708,1.5714,0,0,0,0,0,0,1.5247,1.5287,1.5287,1.5343,1.5374,1.5411,1.5439,1.544,1.5476,1.5473,1.549,1.5499,1.5554,1.5573,1.5547,1.564,1.5621,1.5627,1.5626,1.5632,1.5637,1.5632,1.5537,0,0,0,0,0,1.5255,1.5291,1.5325,1.5371,1.5386,1.541,1.5432,1.544,1.5473,1.5486,1.5511,1.5544,1.5583,1.5608,1.5646,1.5706,1.5716,1.5732,1.5737,1.5741,1.5747,1.5782,1.579,1.5704,1.5704,1.5704,0,0,1.5272,1.5299,1.532,1.5373,1.5398,1.5436,1.5421,1.5462,1.5491,1.5493,1.5545,1.5565,1.5602,1.566,1.5687,1.5678,1.5773,1.5746,1.5749,1.5753,1.5787,1.5795,1.5803,1.5707,1.5706,1.5706,0,0,1.5323,1.5346,1.5388,1.5413,1.545,1.5465,1.5475,1.5513,1.5526,1.5579,1.5581,1.5616,1.5683,1.571,1.5733,1.5795,1.5796,1.5806,1.5834,1.5868,1.5875,1.5881,1.5905,1.5913,1.5812,1.5812,1.5812,0,1.534,1.5397,1.541,1.5451,1.5475,1.5477,1.5521,1.5544,1.5592,1.5609,1.5598,1.5683,1.5708,1.5773,1.5788,1.5806,1.5819,1.5803,1.5872,1.5879,1.5885,1.5908,1.5917,1.5813,1.5813,1.5813,1.5813,0,1.5417,1.5457,1.5486,1.5532,1.5559,1.5601,1.5621,1.5647,1.5653,1.5671,1.5725,1.5756,1.58,1.5816,1.5822,1.5882,1.5876,1.5868,1.585,1.5894,1.5916,1.5925,1.5815,1.5815,1.5814,1.5814,0,0,1.5476,1.5528,1.5539,1.556,1.5601,1.5633,1.5675,1.5718,1.5741,1.5774,1.5812,1.5868,1.5862,1.5887,1.5897,1.5926,1.5976,1.5916,1.5917,1.5927,1.6047,1.6053,1.6063,1.5976,1.5978,1.5979,1.6044,0,1.5533,1.5608,1.5621,1.5688,1.5726,1.5728,1.5766,1.5796,1.5813,1.5849,1.5868,1.5909,1.5896,1.5912,1.5941,1.5964,1.6001,1.5959,1.6013,1.6015,1.6006,1.6074,1.6081,1.6141,1.6053,1.6054,1.6055,0,1.561,1.5645,1.5715,1.5752,1.5768,1.5802,1.5843,1.5876,1.5911,1.5921,1.595,1.5956,1.6002,1.598,1.6045,1.6017,1.604,1.6054,1.6057,1.6064,1.6039,1.6085,1.616,1.617,1.6069,1.6067,1.6066,0,1.5648,1.5712,1.5763,1.5781,1.5825,1.5848,1.5868,1.5901,1.5926,1.5963,1.598,1.6021,1.6044,1.6076,1.6094,1.6076,1.6159,1.6137,1.617,1.617,1.6189,1.6188,1.6271,1.6201,1.6201,1.62,1.62,0,1.5712,1.5756,1.5781,1.5812,1.5861,1.5876,1.5925,1.5944,1.5973,1.601,1.6014,1.6049,1.6069,1.6107,1.6121,1.6174,1.6184,1.6195,1.6199,1.6196,1.6195,1.6212,1.6209,1.6203,1.6202,1.6202,1.6201,0,1.5764,1.5782,1.5838,1.5875,1.5885,1.592,1.5952,1.5984,1.6,1.6047,1.6058,1.6085,1.613,1.615,1.6206,1.6215,1.6276,1.6276,1.6264,1.6266,1.6299,1.6296,1.6397,1.6412,1.633,1.6331,1.6332,0,1.5804,1.5838,1.5878,1.5902,1.5922,1.5961,1.5987,1.6003,1.603,1.6072,1.6099,1.6143,1.618,1.6251,1.6277,1.632,1.6322,1.6354,1.6328,1.6325,1.6325,1.6323,1.6328,1.636,1.636,1.6361,1.6362,0,1.5875,1.5882,1.5919,1.5959,1.5989,1.6022,1.6053,1.6073,1.6094,1.6125,1.617,1.6198,1.6254,1.63,1.6344,1.6366,1.6368,1.6369,1.638,1.6378,1.6371,1.6377,1.6279,1.6367,1.6367,1.6366,1.6366,1.6366,1.5924,1.5954,1.5987,1.6028,1.6053,1.6083,1.6115,1.6136,1.6173,1.622,1.6227,1.6276,1.6311,1.6371,1.6394,1.6433,1.6426,1.644,1.6444,1.6448,1.6451,1.6363,1.6441,1.6441,1.6441,1.6441,1.6441,0,1.5996,1.6018,1.6055,1.6099,1.6131,1.6129,1.6164,1.6192,1.6235,1.6266,1.6302,1.6355,1.6399,1.6428,1.6472,1.6498,1.6501,1.651,1.6509,1.6515,1.6454,1.6442,1.6507,1.6507,1.6507,1.6507,1.6507,1.6507,1.6038,1.609,1.6101,1.6166,1.6187,1.6234,1.6255,1.6283,1.6309,1.6367,1.6403,1.6421,1.6453,1.65,1.654,1.6548,1.6565,1.6575,1.6582,1.6525,1.6519,1.6512,1.6501,1.6578,1.6578,1.664,1.664,1.6641]},{"header":{"parameterUnit":"m.s-1","parameterCategory":1,"la1":30.2991,"la2":30.254,"lo1":-89.0895,"lo2":-89.0444,"dy":0.0017,"dx":0.0017,"nx":28,"ny":28,"refTime":"2023-09-12T21:00:00:Z","depth":0,"parameterNumber":3,"parameterNumberName":"V-component_of_WINDS"},"data":[0,0,0,0,0,0,0,0,0,0,0,0,0,0,0,0,0,0,0,0,0,0,0,0,0,0,0,0,0,0,0,0,0,0,0,0,0,0,0,0,0,0,0,0,0,0,0,0,0,0,0,0,0,0,0,0,0,0,-0.7035,-0.7033,0,-0.6852,-0.685,-0.6848,-0.6792,-0.6793,-0.6794,-0.6794,-0.6596,-0.659,-0.6584,0,0,0,0,0,0,0,0,0,0,0,0,0,-0.7326,-0.7321,-0.7035,-0.7033,-0.7031,-0.6852,-0.685,-0.6847,-0.6792,-0.6793,-0.6794,-0.6795,-0.6598,-0.6591,-0.6584,0,0,0,0,0,0,0,0,0,0,0,0,0,-0.7177,-0.732,-0.7036,-0.6982,-0.6975,-0.6853,-0.685,-0.6847,-0.6791,-0.6793,-0.6794,-0.6795,-0.6601,-0.6592,-0.6583,-0.6498,0,0,-0.6554,-0.655,0,0,0,0,0,0,0,0,-0.7186,-0.7166,-0.6992,-0.6985,-0.6978,-0.6846,-0.688,-0.6729,-0.6791,-0.6861,-0.6795,-0.6796,-0.6678,-0.6662,-0.6624,-0.6488,-0.648,-0.6554,-0.6548,-0.6544,-0.6541,0,0,0,0,0,0,0,-0.7196,-0.7174,-0.6962,-0.6989,-0.6981,-0.6963,-0.6944,-0.6851,-0.6763,-0.6855,-0.685,-0.683,-0.6674,-0.6633,-0.6619,-0.6477,-0.6554,-0.6546,-0.654,-0.6536,-0.626,-0.6259,0,0,0,0,0,0,-0.7217,-0.7183,-0.6968,-0.6957,-0.7088,-0.6957,-0.6935,-0.6887,-0.6764,-0.6747,-0.6829,-0.6828,-0.6649,-0.663,-0.6612,-0.6504,-0.6544,-0.6536,-0.653,-0.6262,-0.626,-0.6258,0,0,0,0,0,0,-0.7224,-0.7199,-0.6976,-0.7069,-0.7039,-0.695,-0.6897,-0.6883,-0.6842,-0.6745,-0.6728,-0.6805,-0.6649,-0.6625,-0.6527,-0.6496,-0.6531,-0.6523,-0.6264,-0.6262,-0.6259,-0.6288,0,0,0,0,0,0,-0.7232,-0.7201,-0.7171,-0.7069,-0.7035,-0.6897,-0.6895,-0.6878,-0.6828,-0.6825,-0.6717,-0.6701,-0.6648,-0.6541,-0.6518,-0.6484,-0.6516,-0.6267,-0.6263,-0.626,-0.6289,-0.6287,-0.6284,0,0,0,0,0,-0.7243,-0.7184,-0.7169,-0.7144,-0.6995,-0.6895,-0.6875,-0.6819,-0.6826,-0.6792,-0.673,-0.6704,-0.6504,-0.6532,-0.6505,-0.6468,-0.6268,-0.6264,-0.626,-0.629,-0.6287,-0.6284,0,0,0,0,0,0,-0.728,-0.7169,-0.7152,-0.7059,-0.6988,-0.6886,-0.6843,-0.6818,-0.674,-0.674,-0.667,-0.6646,-0.6553,-0.65,-0.6533,-0.6379,-0.6385,-0.6375,-0.6417,-0.6413,-0.641,-0.6424,-0.6508,0,0,0,0,0,-0.7279,-0.7211,-0.7116,-0.7043,-0.7008,-0.6932,-0.6886,-0.685,-0.6771,-0.6739,-0.6669,-0.6591,-0.6511,-0.6459,-0.6379,-0.6281,-0.6256,-0.6243,-0.624,-0.6239,-0.6231,-0.6174,-0.6167,-0.6245,-0.6245,-0.6245,0,0,-0.7273,-0.7204,-0.7164,-0.7049,-0.6989,-0.6917,-0.6907,-0.6831,-0.6776,-0.6726,-0.6631,-0.6577,-0.6484,-0.6387,-0.634,-0.634,-0.6204,-0.6234,-0.6233,-0.6226,-0.6169,-0.6162,-0.6155,-0.6242,-0.6243,-0.6243,0,0,-0.7226,-0.7167,-0.71,-0.7041,-0.6952,-0.6902,-0.6886,-0.6788,-0.6752,-0.6655,-0.6617,-0.6548,-0.6411,-0.6347,-0.6297,-0.6225,-0.6198,-0.6201,-0.6187,-0.6133,-0.6126,-0.6121,-0.6094,-0.6086,-0.6194,-0.6194,-0.6194,0,-0.7228,-0.7122,-0.7068,-0.6995,-0.6944,-0.69,-0.6829,-0.6773,-0.6661,-0.6626,-0.6628,-0.6456,-0.639,-0.6276,-0.6259,-0.622,-0.6197,-0.6213,-0.6133,-0.6126,-0.612,-0.6093,-0.6084,-0.6195,-0.6194,-0.6194,-0.6194,0,-0.713,-0.7056,-0.7012,-0.6909,-0.6853,-0.6782,-0.6713,-0.6662,-0.663,-0.6579,-0.648,-0.64,-0.6304,-0.6274,-0.624,-0.6154,-0.6157,-0.6147,-0.6151,-0.6114,-0.6088,-0.6078,-0.6196,-0.6196,-0.6195,-0.6195,0,0,-0.71,-0.697,-0.6954,-0.6907,-0.6806,-0.6746,-0.6671,-0.658,-0.6538,-0.6461,-0.6395,-0.628,-0.6271,-0.6213,-0.6172,-0.6124,-0.6072,-0.612,-0.6116,-0.6113,-0.597,-0.5978,-0.5968,-0.6054,-0.6052,-0.605,-0.5978,0,-0.704,-0.6909,-0.6858,-0.6749,-0.668,-0.6637,-0.6571,-0.65,-0.645,-0.638,-0.6323,-0.6243,-0.6237,-0.6202,-0.6153,-0.6089,-0.6042,-0.6093,-0.5988,-0.5985,-0.6013,-0.5954,-0.5962,-0.5898,-0.5967,-0.5966,-0.5964,0,-0.6951,-0.6879,-0.6765,-0.6673,-0.6641,-0.6584,-0.6496,-0.6432,-0.6349,-0.6315,-0.6252,-0.6214,-0.613,-0.6141,-0.6023,-0.606,-0.6013,-0.5975,-0.5971,-0.5958,-0.5972,-0.5939,-0.5876,-0.5867,-0.5948,-0.5949,-0.5951,0,-0.6941,-0.6814,-0.673,-0.669,-0.658,-0.6541,-0.6492,-0.6412,-0.636,-0.6282,-0.6247,-0.6159,-0.6111,-0.6042,-0.5979,-0.5993,-0.5867,-0.5873,-0.5834,-0.5836,-0.5809,-0.5811,-0.5737,-0.5781,-0.5781,-0.5781,-0.5781,0,-0.6878,-0.681,-0.6724,-0.6671,-0.6593,-0.6533,-0.6455,-0.6403,-0.6332,-0.6266,-0.6222,-0.6161,-0.6083,-0.6011,-0.5961,-0.587,-0.5848,-0.5817,-0.5804,-0.582,-0.5824,-0.5788,-0.5791,-0.5778,-0.5779,-0.578,-0.578,0,-0.6852,-0.6792,-0.6697,-0.6602,-0.6577,-0.6523,-0.6439,-0.6385,-0.6333,-0.6251,-0.6228,-0.6145,-0.6057,-0.5989,-0.5874,-0.584,-0.5744,-0.5731,-0.5773,-0.5767,-0.5732,-0.5736,-0.5631,-0.5614,-0.5671,-0.567,-0.567,0,-0.6816,-0.6763,-0.6663,-0.6619,-0.6572,-0.6499,-0.6448,-0.6385,-0.6333,-0.6235,-0.6192,-0.6102,-0.6027,-0.5889,-0.5816,-0.5727,-0.571,-0.568,-0.5696,-0.5714,-0.5709,-0.5712,-0.5706,-0.5678,-0.5677,-0.5677,-0.5677,0,-0.6758,-0.6731,-0.6661,-0.6579,-0.652,-0.6451,-0.6382,-0.6346,-0.6271,-0.6213,-0.6126,-0.6068,-0.5952,-0.5862,-0.5766,-0.5712,-0.5681,-0.5673,-0.5659,-0.5674,-0.5701,-0.5685,-0.5767,-0.5675,-0.5675,-0.5675,-0.5675,-0.5675,-0.6725,-0.6676,-0.6599,-0.6521,-0.6463,-0.6399,-0.6344,-0.6287,-0.6214,-0.6117,-0.6084,-0.5993,-0.591,-0.5778,-0.5724,-0.5649,-0.5647,-0.5627,-0.5622,-0.5618,-0.5619,-0.5714,-0.5631,-0.5631,-0.5631,-0.5631,-0.5631,0,-0.6663,-0.6612,-0.6542,-0.6448,-0.6386,-0.6367,-0.6288,-0.6237,-0.6159,-0.6086,-0.6014,-0.5912,-0.5825,-0.5746,-0.5655,-0.561,-0.5593,-0.5588,-0.559,-0.5577,-0.5627,-0.5648,-0.5603,-0.5603,-0.5603,-0.5603,-0.5603,-0.5603,-0.6624,-0.6541,-0.6505,-0.639,-0.6338,-0.6252,-0.6209,-0.6149,-0.609,-0.598,-0.5909,-0.586,-0.5783,-0.5686,-0.5604,-0.5582,-0.555,-0.5548,-0.5523,-0.557,-0.5574,-0.5577,-0.5597,-0.5542,-0.5542,-0.548,-0.5479,-0.5479]}]]